ARN107 CYGP-CYGR

Flight info

Callsign ARN107
Flight time 0h 27m
Altitude 17000
Route DCT
Aircraft RJ1H/M-WX/S

Departure

Time 2026-05-06 19:34
Airport Michel-Pouliot Gaspé Airport (CYGP)

Arrival

Time 2026-05-06 20:01
Airport Îles-de-la-Madeleine Airport (CYGR)
Time Latitude Longitude Altitude Speed Heading
2026-05-06 19:24 48.77747 -64.47553 131 ft 0 kts 264°
2026-05-06 19:29 48.77743 -64.47598 103 ft 6 kts 244°
2026-05-06 19:29 48.77715 -64.47608 104 ft 5 kts 173°
2026-05-06 19:29 48.77656 -64.47598 102 ft 9 kts 173°
2026-05-06 19:30 48.77594 -64.47587 105 ft 9 kts 173°
2026-05-06 19:30 48.77548 -64.47596 107 ft 7 kts 223°
2026-05-06 19:30 48.77534 -64.47685 108 ft 12 kts 264°
2026-05-06 19:30 48.77524 -64.47822 110 ft 15 kts 263°
2026-05-06 19:31 48.77511 -64.47992 110 ft 18 kts 263°
2026-05-06 19:31 48.77499 -64.48194 110 ft 20 kts 264°
2026-05-06 19:31 48.77474 -64.48585 115 ft 13 kts 264°
2026-05-06 19:32 48.77466 -64.48718 118 ft 15 kts 264°
2026-05-06 19:32 48.77473 -64.48844 117 ft 8 kts 274°
2026-05-06 19:32 48.77464 -64.48880 117 ft 2 kts 196°
2026-05-06 19:32 48.77452 -64.48872 117 ft 2 kts 129°
2026-05-06 19:33 48.77452 -64.48866 117 ft 1 kts 82°
2026-05-06 19:33 48.77483 -64.48431 110 ft 80 kts 84°
2026-05-06 19:33 48.77567 -64.47251 139 ft 139 kts 82°
2026-05-06 19:33 48.77655 -64.45702 499 ft 159 kts 85°
2026-05-06 19:34 48.77550 -64.43936 864 ft 180 kts 117°
2026-05-06 19:34 48.76877 -64.42365 1778 ft 186 kts 126°
2026-05-06 19:34 48.76128 -64.40653 2571 ft 204 kts 128°
2026-05-06 19:34 48.75268 -64.38823 3393 ft 222 kts 130°
2026-05-06 19:35 48.74307 -64.36884 4254 ft 238 kts 131°
2026-05-06 19:35 48.73266 -64.34854 5169 ft 250 kts 134°
2026-05-06 19:35 48.72177 -64.32716 6059 ft 263 kts 137°
2026-05-06 19:35 48.71041 -64.30470 6930 ft 272 kts 139°
2026-05-06 19:36 48.69863 -64.28171 7773 ft 282 kts 140°
2026-05-06 19:36 48.68665 -64.25868 8922 ft 278 kts 142°
2026-05-06 19:36 48.67433 -64.23546 9811 ft 286 kts 142°
2026-05-06 19:36 48.66184 -64.21167 10621 ft 293 kts 141°
2026-05-06 19:37 48.64902 -64.18742 11447 ft 298 kts 140°
2026-05-06 19:37 48.63594 -64.16271 12220 ft 305 kts 139°
2026-05-06 19:37 48.62265 -64.13735 12933 ft 311 kts 138°
2026-05-06 19:37 48.60917 -64.11141 13560 ft 319 kts 137°
2026-05-06 19:38 48.59508 -64.08439 13840 ft 335 kts 137°
2026-05-06 19:38 48.58033 -64.05615 14062 ft 349 kts 137°
2026-05-06 19:38 48.56514 -64.02699 14405 ft 356 kts 136°
2026-05-06 19:38 48.54983 -63.99735 14756 ft 361 kts 137°
2026-05-06 19:39 48.53444 -63.96723 15201 ft 363 kts 136°
2026-05-06 19:39 48.51892 -63.93705 15651 ft 365 kts 137°
2026-05-06 19:39 48.50306 -63.90694 16097 ft 367 kts 137°
2026-05-06 19:39 48.48739 -63.87706 16532 ft 370 kts 136°
2026-05-06 19:40 48.47145 -63.84654 16849 ft 374 kts 136°
2026-05-06 19:40 48.45526 -63.81569 16960 ft 370 kts 136°
2026-05-06 19:40 48.43947 -63.78542 16983 ft 367 kts 136°
2026-05-06 19:40 48.42363 -63.75517 17005 ft 368 kts 137°
2026-05-06 19:41 48.40762 -63.72522 17003 ft 368 kts 137°
2026-05-06 19:41 48.39163 -63.69504 16978 ft 368 kts 137°
2026-05-06 19:41 48.37573 -63.66498 16994 ft 367 kts 137°
2026-05-06 19:41 48.35974 -63.63504 17002 ft 368 kts 137°
2026-05-06 19:42 48.34371 -63.60503 17006 ft 368 kts 137°
2026-05-06 19:42 48.32781 -63.57481 17008 ft 369 kts 137°
2026-05-06 19:42 48.31188 -63.54457 17009 ft 369 kts 137°
2026-05-06 19:42 48.29584 -63.51458 17018 ft 369 kts 137°
2026-05-06 19:43 48.27974 -63.48454 17016 ft 369 kts 137°
2026-05-06 19:43 48.26366 -63.45455 17016 ft 369 kts 137°
2026-05-06 19:43 48.24775 -63.42430 17014 ft 369 kts 137°
2026-05-06 19:43 48.23170 -63.39418 17015 ft 370 kts 137°
2026-05-06 19:44 48.21557 -63.36418 16994 ft 369 kts 137°
2026-05-06 19:44 48.19950 -63.33425 17008 ft 369 kts 137°
2026-05-06 19:44 48.18337 -63.30430 17009 ft 369 kts 137°
2026-05-06 19:44 48.16724 -63.27433 17011 ft 369 kts 137°
2026-05-06 19:45 48.15112 -63.24439 17022 ft 369 kts 138°
2026-05-06 19:45 48.13501 -63.21445 17019 ft 369 kts 137°
2026-05-06 19:45 48.11905 -63.18424 17013 ft 370 kts 137°
2026-05-06 19:45 48.10297 -63.15422 17016 ft 370 kts 137°
2026-05-06 19:46 48.08684 -63.12417 17022 ft 370 kts 137°
2026-05-06 19:46 48.07069 -63.09416 17023 ft 370 kts 138°
2026-05-06 19:46 48.05456 -63.06416 17018 ft 370 kts 137°
2026-05-06 19:46 48.03842 -63.03420 17022 ft 370 kts 138°
2026-05-06 19:47 48.02227 -63.00424 17032 ft 370 kts 137°
2026-05-06 19:47 48.00612 -62.97427 17023 ft 370 kts 138°
2026-05-06 19:47 47.98993 -62.94430 17028 ft 370 kts 138°
2026-05-06 19:47 47.97361 -62.91460 17031 ft 370 kts 139°
2026-05-06 19:48 47.95734 -62.88489 17036 ft 370 kts 138°
2026-05-06 19:48 47.94115 -62.85501 17032 ft 370 kts 138°
2026-05-06 19:48 47.92496 -62.82511 17039 ft 371 kts 138°
2026-05-06 19:48 47.90871 -62.79537 17035 ft 370 kts 139°
2026-05-06 19:49 47.89228 -62.76576 17019 ft 370 kts 138°
2026-05-06 19:49 47.87601 -62.73611 17025 ft 370 kts 138°
2026-05-06 19:49 47.85973 -62.70635 17039 ft 371 kts 138°
2026-05-06 19:49 47.84345 -62.67657 17019 ft 369 kts 138°
2026-05-06 19:50 47.82736 -62.64699 16357 ft 367 kts 138°
2026-05-06 19:50 47.81134 -62.61767 15783 ft 362 kts 139°
2026-05-06 19:50 47.79551 -62.58888 15207 ft 358 kts 139°
2026-05-06 19:50 47.77995 -62.56029 14633 ft 354 kts 137°
2026-05-06 19:51 47.76579 -62.53029 14164 ft 347 kts 132°
2026-05-06 19:51 47.75400 -62.50072 13218 ft 322 kts 130°
2026-05-06 19:51 47.74352 -62.47248 12283 ft 310 kts 130°
2026-05-06 19:51 47.73304 -62.44453 11904 ft 307 kts 129°
2026-05-06 19:52 47.72282 -62.41683 11542 ft 305 kts 129°
2026-05-06 19:52 47.71267 -62.38918 11172 ft 304 kts 129°
2026-05-06 19:52 47.70262 -62.36225 10941 ft 297 kts 129°
2026-05-06 19:52 47.69289 -62.33600 10917 ft 284 kts 130°
2026-05-06 19:53 47.68359 -62.31090 10885 ft 271 kts 130°
2026-05-06 19:53 47.67464 -62.28682 10760 ft 264 kts 131°
2026-05-06 19:53 47.66550 -62.26291 10322 ft 265 kts 131°
2026-05-06 19:53 47.65638 -62.23920 9863 ft 264 kts 131°
2026-05-06 19:54 47.64726 -62.21569 9375 ft 260 kts 132°
2026-05-06 19:54 47.63838 -62.19250 8687 ft 258 kts 132°
2026-05-06 19:54 47.62962 -62.16945 8043 ft 255 kts 132°
2026-05-06 19:54 47.62101 -62.14664 7419 ft 252 kts 133°
2026-05-06 19:55 47.61236 -62.12425 6794 ft 249 kts 132°
2026-05-06 19:55 47.60362 -62.10201 6121 ft 249 kts 133°
2026-05-06 19:55 47.59504 -62.07993 5559 ft 245 kts 133°
2026-05-06 19:55 47.58670 -62.05814 4993 ft 241 kts 133°
2026-05-06 19:56 47.57853 -62.03669 4428 ft 237 kts 133°
2026-05-06 19:56 47.57043 -62.01579 3865 ft 232 kts 133°
2026-05-06 19:56 47.56244 -61.99526 3331 ft 228 kts 133°
2026-05-06 19:56 47.55461 -61.97517 2803 ft 223 kts 133°
2026-05-06 19:57 47.54694 -61.95551 2286 ft 218 kts 132°
2026-05-06 19:57 47.53908 -61.93665 1821 ft 211 kts 139°
2026-05-06 19:57 47.52953 -61.92083 1650 ft 203 kts 147°
2026-05-06 19:57 47.51952 -61.90697 1599 ft 186 kts 149°
2026-05-06 19:58 47.51082 -61.89475 1599 ft 158 kts 149°
2026-05-06 19:58 47.50361 -61.88437 1552 ft 133 kts 152°
2026-05-06 19:58 47.49742 -61.87557 1501 ft 119 kts 154°
2026-05-06 19:58 47.49122 -61.86732 1524 ft 120 kts 154°
2026-05-06 19:59 47.48502 -61.85902 1521 ft 121 kts 154°
2026-05-06 19:59 47.47881 -61.85047 1505 ft 121 kts 153°
2026-05-06 19:59 47.47315 -61.84222 1426 ft 110 kts 152°
2026-05-06 19:59 47.46798 -61.83421 1231 ft 105 kts 148°
2026-05-06 20:00 47.46286 -61.82608 1014 ft 111 kts 149°
2026-05-06 20:00 47.45740 -61.81815 860 ft 112 kts 150°
2026-05-06 20:00 47.45206 -61.80976 675 ft 112 kts 146°
2026-05-06 20:00 47.44620 -61.80215 462 ft 112 kts 143°
2026-05-06 20:01 47.44068 -61.79390 280 ft 113 kts 136°
2026-05-06 20:01 47.43511 -61.78598 158 ft 107 kts 143°
2026-05-06 20:01 47.42984 -61.77864 36 ft 102 kts 140°
2026-05-06 20:01 47.42584 -61.77300 27 ft 44 kts 136°
2026-05-06 20:02 47.42495 -61.77188 27 ft 7 kts 111°
2026-05-06 20:02 47.42524 -61.77220 26 ft 13 kts 301°
2026-05-06 20:02 47.42474 -61.77370 28 ft 17 kts 242°
2026-05-06 20:02 47.42435 -61.77485 33 ft 0 kts 270°